Flag for Norway Weather past 2 weeks in Spydeberg, Norway

Now
75 °F

Passing clouds.


Feels Like: 77 °F
Forecast: 58 / 72 °F
Wind: 9 mph from Southwest

Location: Rygge

Current Time: Jul 29, 2014 at 12:16:15 PM

Latest Report: Jul 29, 2014 at 11:20 AM


Visibility: N/A

Pressure: 29.86 "Hg

Humidity: 61%

Dew point: 61 °F

Location of SpydebergLocation

Historic Weather in Spydeberg — Graph

°F

Spydeberg temperature yesterday

Maximum temperature yesterday: 79 °F (at 1:50 PM)
Minimum temperature yesterday: 61 °F (at 4:20 AM)
Average temperature yesterday: 70 °F

Past Weeks' High & Low Weather Summary

 TemperatureHumidityPressure
High91 °F (Jul 23, 5:20 PM)100% (Jul 17, 2:20 AM)30.30 "Hg (Jul 17, 2:20 AM)
Low54 °F (Jul 19, 4:50 AM)26% (Jul 23, 5:50 PM)29.68 "Hg (Jul 14, 10:20 AM)
Average71 °F66%30.05 "Hg
* Reported Jul 14 10:20 AM — Jul 29 10:50 AM, Spydeberg, Weather by CustomWeather, © 2014

Note: Actual official high and low records may vary slightly from our data, if they occured in-between our weather recording intervals... More about our weather records

Advertising

Spydeberg weather history for previous 24 hours

 ConditionsComfort  
Time TempWeatherWind HumidityBarometerVisibility
10:50 AM
Jul 29
75 °FPassing clouds.9 mph61%29.86 "HgN/A
10:20 AM73 °FScattered clouds.10 mph74%29.86 "HgN/A
9:50 AM72 °FPartly sunny.6 mph78%29.86 "HgN/A
9:20 AM73 °FPartly sunny.5 mph78%29.86 "HgN/A
8:50 AM70 °FBroken clouds.6 mph83%29.86 "HgN/A
8:20 AM68 °FPartly sunny.5 mph88%29.86 "HgN/A
7:50 AM68 °FBroken clouds.5 mph88%29.86 "HgN/A
7:20 AM68 °FPartly sunny.6 mph88%29.86 "HgN/A
6:50 AM64 °FBroken clouds.3 mph100%29.86 "HgN/A
6:20 AM64 °FPartly sunny.5 mph94%29.86 "HgN/A
5:50 AM64 °FLow clouds.5 mph94%29.86 "Hg5 mi
5:20 AM64 °FOvercast.3 mph94%29.86 "Hg5 mi
4:50 AM64 °FPassing clouds.2 mph94%29.86 "HgN/A
4:20 AM64 °FPassing clouds.5 mph94%29.86 "HgN/A
3:50 AM63 °FPassing clouds.3 mph100%29.86 "HgN/A
3:20 AM64 °FMild.3 mph94%29.89 "HgN/A
2:50 AM64 °FMild.2 mph94%29.89 "HgN/A
2:20 AM64 °FMild.7 mph94%29.89 "HgN/A
1:50 AM64 °FMild.3 mph94%29.89 "HgN/A
1:20 AM64 °FMild.7 mph94%29.89 "HgN/A
12:50 AM64 °FMild.7 mph94%29.89 "HgN/A
12:20 AM66 °FMild.7 mph88%29.89 "HgN/A
11:50 PM
Jul 28
68 °FClear.6 mph83%29.89 "Hg10 mi
11:20 PM68 °FClear.5 mph83%29.89 "Hg10 mi
10:50 PM70 °FSunny.7 mph78%29.89 "Hg10 mi
10:20 PM70 °FSunny.7 mph78%29.89 "Hg10 mi
9:50 PM72 °FSunny.5 mph78%29.89 "Hg10 mi
9:20 PM72 °FSunny.8 mph78%29.89 "Hg10 mi
8:50 PM73 °FSunny.8 mph74%29.89 "Hg10 mi
8:20 PM73 °FSunny.9 mph74%29.89 "Hg10 mi
7:50 PM73 °FSunny.12 mph74%29.89 "Hg10 mi
7:20 PM75 °FPassing clouds.13 mph69%29.89 "HgN/A
6:50 PM75 °FSunny.14 mph74%29.89 "Hg10 mi
6:20 PM75 °FSunny.15 mph69%29.89 "Hg10 mi
5:50 PM77 °FPassing clouds.13 mph65%29.89 "HgN/A
5:20 PM75 °FSunny.14 mph65%29.92 "Hg10 mi
4:50 PM75 °FPassing clouds.14 mph65%29.92 "HgN/A
4:20 PM73 °FSunny.15 mph69%29.92 "Hg10 mi
3:50 PM77 °FSunny.15 mph61%29.92 "Hg10 mi
3:20 PM77 °FScattered clouds.14 mph57%29.92 "HgN/A
2:50 PM79 °FScattered clouds.14 mph54%29.92 "HgN/A
2:20 PM79 °FScattered clouds.10 mph54%29.92 "HgN/A
1:50 PM79 °FScattered clouds.7 mph54%29.92 "HgN/A
1:20 PM75 °FScattered clouds.5 mph57%29.92 "HgN/A
12:20 PM77 °FScattered clouds.7 mph61%29.95 "HgN/A
Weather by CustomWeather, © 2014

See weather overviewHow to use our weather pages